Theta_e
306 306 307 308 308 307 307 306 306 307 308 309 310 311 310 310 310 311 308 307 305 304 302 301 300 297 296 296 296 296 294 294 294 293 292 292 293 293 295 296 296 294 294
305 305 305 306 307 307 307 306 305 305 306 307 309 309 309 309 308 309 307 306 304 303 301 300 299 297 296 296 295 295 294 294 294 294 293 290 290 291 292 294 293 292 292
303 303 303 305 306 306 307 306 305 304 304 305 306 306 307 305 305 306 305 304 303 301 300 300 299 297 297 296 296 295 295 293 292 295 296 291 292 290 290 291 292 291 291
303 303 304 304 303 303 304 304 304 304 303 303 303 303 301 301 302 303 303 303 302 301 300 299 299 298 296 296 296 296 296 297 292 291 291 292 295 292 286 290 290 291 290
302 301 301 301 302 302 302 302 301 302 302 301 302 302 301 302 303 302 301 301 300 300 300 299 298 297 296 296 296 294 295 296 296 293 290 290 291 292 293 288 287 290 290
300 300 299 299 299 300 299 299 298 299 300 300 300 300 300 300 301 301 299 299 299 297 298 298 298 297 296 295 295 295 294 294 295 295 293 292 290 290 291 291 289 288 289
296 295 294 295 295 295 296 296 296 296 296 297 298 299 299 300 299 300 298 298 297 296 296 297 296 296 296 295 295 294 294 293 293 294 294 294 294 293 293 293 289 288 287
295 294 293 293 293 293 294 295 295 294 295 295 295 296 297 297 298 298 298 297 297 297 297 296 296 296 295 294 293 293 293 293 292 293 293 292 293 292 292 291 289 285 285
293 293 294 293 292 292 292 293 293 293 293 293 294 293 294 295 295 296 296 295 295 295 295 295 294 294 294 293 293 292 291 291 291 291 291 292 291 290 291 291 292 291 285
291 291 291 291 292 291 291 292 292 291 291 291 292 293 293 293 294 296 295 294 295 295 293 294 293 293 292 292 291 291 291 289 289 288 288 289 289 288 288 288 288 289 291
288 288 289 289 291 291 290 291 290 291 290 290 290 291 292 291 292 292 293 294 294 294 293 293 292 292 291 290 290 290 289 287 288 286 287 287 287 287 286 286 285 285 286
286 287 287 288 288 289 289 289 290 289 289 289 289 290 291 291 290 290 291 293 293 293 292 292 291 291 290 290 289 288 287 286 285 285 285 285 284 285 284 284 283 283 283
285 284 285 285 286 287 288 288 288 288 288 288 288 289 289 289 289 289 290 291 291 291 292 290 290 289 289 289 288 288 287 286 285 285 284 284 284 282 282 282 282 282 280
283 283 284 284 285 286 286 287 286 287 286 287 287 287 287 287 287 288 289 289 290 290 290 290 290 289 289 287 287 286 287 285 285 285 284 284 283 283 281 281 282 281 281
283 282 283 284 284 284 285 285 285 285 285 285 286 286 285 285 285 286 287 288 288 288 288 288 288 288 287 287 286 285 286 285 284 284 283 283 283 284 283 281 282 281 280
282 282 282 283 283 283 283 284 284 284 284 284 284 285 283 282 283 284 285 285 286 286 287 286 286 286 285 286 288 286 284 284 283 282 282 282 282 283 285 285 284 282 280
281 281 282 282 283 283 283 283 283 283 282 282 284 284 281 281 282 282 282 283 283 285 284 285 285 285 286 288 288 287 284 284 283 283 282 281 281 282 282 284 284 283 284
282 282 283 283 283 284 283 283 283 282 281 281 282 281 279 279 280 280 280 281 283 283 284 284 284 284 285 287 288 287 285 284 283 283 282 281 281 281 281 282 281 280 281
283 283 284 283 283 282 283 282 281 281 280 279 280 279 278 278 277 276 278 280 281 282 283 284 284 284 284 286 287 287 285 283 283 283 282 281 280 281 283 281 279 279 279
284 283 283 282 281 282 282 280 279 279 278 279 279 278 277 276 274 275 276 278 280 280 281 282 283 283 284 286 287 286 285 283 282 281 281 282 281 282 284 280 279 277 277
282 282 282 280 280 280 280 278 278 277 278 278 277 276 276 273 273 273 274 275 277 279 279 280 281 282 282 283 286 287 284 283 281 281 280 280 283 282 284 283 280 280 280
280 280 278 278 279 279 278 276 276 277 277 277 275 274 272 271 271 270 271 273 274 275 278 278 279 280 280 281 283 285 287 287 282 280 279 279 282 282 284 283 282 283 281
277 277 276 275 276 276 275 273 275 275 275 273 269 269 269 269 269 269 269 270 272 274 277 277 277 278 279 279 282 283 285 287 282 281 280 280 282 282 283 284 282 280 278
272 272 271 270 270 272 272 272 272 271 266 265 266 267 266 267 267 268 269 269 271 273 276 277 277 278 278 278 279 279 281 282 283 281 280 280 281 282 282 281 279 279 277
268 268 267 266 266 266 266 266 266 265 263 263 263 264 264 264 265 266 267 268 270 271 271 275 278 277 277 279 279 279 280 282 282 279 278 278 278 278 279 279 278 276 275
264 263 263 262 262 261 261 261 261 261 260 260 260 261 262 262 263 263 264 268 270 272 274 276 277 279 281 282 281 281 282 285 282 277 276 276 277 277 277 276 273 272 272
Wind_Speed
13 9 10 10 8 8 9 11 12 13 12 12 12 12 14 12 13 13 19 20 17 19 16 12 13 13 12 13 14 10 12 7 9 7 5 3 3 4 4 5 6 7 5
9 11 9 8 8 8 7 9 11 11 12 10 9 10 10 11 12 12 15 19 20 19 17 16 14 15 12 14 15 14 10 6 11 6 6 5 3 4 5 5 6 7 5
11 10 9 11 10 12 13 9 8 11 12 13 9 10 9 9 10 13 12 15 19 19 18 18 15 15 13 13 15 15 15 10 10 10 4 5 6 7 5 8 7 8 5
5 5 9 14 12 11 12 11 9 8 8 11 11 15 12 13 11 11 11 12 19 20 19 19 17 16 13 14 14 13 12 10 10 7 7 4 2 6 6 6 9 8 7
5 8 18 15 14 12 11 10 10 8 6 8 13 11 14 11 10 9 13 16 15 18 18 19 20 19 15 15 15 15 15 11 10 9 6 7 4 2 4 6 8 8 8
16 15 17 17 17 17 18 17 17 12 8 7 10 14 15 14 11 10 10 10 10 11 17 18 17 17 16 17 15 16 17 13 10 10 9 9 7 7 5 4 8 9 8
21 20 22 21 20 22 21 17 20 19 16 10 10 11 15 15 15 14 11 12 10 11 14 18 18 16 18 17 16 16 16 16 13 13 10 8 7 4 7 6 5 5 4
17 18 19 18 20 21 21 21 20 19 20 17 13 10 12 9 10 12 11 10 11 11 16 16 17 18 17 16 16 13 13 15 13 13 10 8 8 6 7 6 7 4 4
15 15 16 17 17 17 19 19 19 19 18 19 17 15 12 12 11 12 10 10 11 10 13 15 18 18 18 18 17 13 15 14 13 13 11 9 8 7 6 6 6 6 7
15 16 16 16 14 15 14 16 17 17 18 18 16 14 15 14 14 13 12 13 12 12 12 15 16 18 18 17 18 15 14 14 12 10 13 11 8 8 7 6 5 4 5
11 11 11 12 13 13 13 14 15 16 17 17 16 17 15 15 13 12 13 14 13 13 14 14 16 18 19 18 19 19 17 17 16 13 13 14 11 8 8 6 5 5 4
9 11 12 12 14 15 16 17 15 14 15 15 14 14 14 15 15 13 14 13 14 13 13 14 15 17 18 18 19 20 17 19 19 17 15 14 10 13 10 8 9 7 6
8 9 11 12 13 14 15 15 15 16 16 16 15 13 13 15 16 16 14 13 13 14 13 14 15 16 17 19 20 20 19 19 19 18 18 17 16 14 11 11 10 7 5
6 10 11 11 11 12 13 14 16 15 15 15 15 16 15 16 15 15 14 14 13 14 14 15 15 15 16 17 17 19 20 18 17 17 18 18 20 19 17 13 13 11 9
10 13 12 12 11 11 11 12 14 14 15 14 14 15 15 15 15 15 15 14 13 14 13 15 14 13 14 12 16 17 19 18 18 17 17 18 18 23 21 14 15 14 11
13 15 14 14 13 13 12 12 12 13 14 15 16 14 15 14 14 14 14 13 14 11 15 13 14 14 11 18 24 20 17 17 18 18 17 16 19 22 27 27 26 22 18
13 16 17 16 14 13 12 12 13 12 12 12 11 12 13 15 15 16 16 14 12 12 12 15 14 15 15 22 25 27 15 17 18 19 17 16 13 19 18 26 26 25 26
15 15 15 17 17 16 14 13 12 12 12 12 10 11 11 13 15 15 15 15 13 12 12 13 13 14 13 22 24 26 19 16 18 19 18 19 18 20 20 19 17 16 16
16 14 12 14 17 17 16 13 13 13 12 13 12 12 11 11 14 14 16 15 14 13 12 11 13 12 14 23 24 23 18 17 18 16 18 18 17 25 31 20 19 17 15
14 14 15 15 16 16 14 13 15 14 15 13 12 12 12 10 12 15 15 15 14 15 12 13 11 14 15 19 24 23 13 17 13 13 13 22 20 29 36 21 20 19 17
16 16 16 16 18 15 12 16 17 18 15 14 13 12 11 11 13 15 14 15 16 15 15 15 12 12 12 13 23 26 15 13 12 12 12 13 32 33 37 31 19 18 17
19 19 17 18 18 16 15 18 20 18 16 16 13 12 10 10 11 15 16 15 15 17 15 14 13 10 10 15 20 27 29 21 13 13 11 12 30 31 34 27 22 24 22
16 16 16 19 19 18 16 19 19 17 18 12 10 11 13 13 14 15 16 15 14 14 13 11 12 11 7 9 20 25 28 28 14 9 14 20 28 31 29 32 28 25 12
16 16 18 20 21 17 18 18 19 17 11 14 15 15 16 18 17 14 13 13 13 12 12 12 12 12 10 9 8 9 12 21 17 17 11 15 19 23 20 19 19 12 12
16 16 18 19 22 20 20 19 20 19 20 20 19 19 16 17 17 15 14 13 14 15 13 13 12 11 12 10 13 13 10 11 13 12 9 9 10 12 12 12 12 10 11
17 17 18 19 20 20 20 19 18 19 19 20 15 14 13 13 14 14 15 24 30 33 33 33 27 16 24 25 21 23 24 23 25 11 12 11 12 14 13 11 12 11 12
Wind_Direction
310 342 334 324 310 275 257 241 232 225 211 206 208 214 220 214 217 212 209 204 202 199 199 198 194 189 187 188 186 177 176 168 164 138 130 135 162 165 168 172 159 152 153
342 9 13 15 357 326 304 281 262 247 224 218 218 222 225 229 226 222 219 212 204 199 197 195 194 193 187 189 188 179 176 175 184 180 151 171 186 207 198 183 179 165 161
348 23 21 23 14 6 350 324 275 242 225 221 221 226 238 235 217 221 217 215 211 204 200 199 195 195 195 190 188 189 183 174 192 206 187 163 205 156 182 205 195 187 180
21 52 39 14 21 8 354 348 326 288 257 231 226 224 226 235 237 234 227 216 212 207 201 200 197 196 201 200 192 191 197 182 178 198 227 249 122 184 164 204 205 203 203
30 32 20 14 26 21 19 14 5 353 294 240 240 240 240 250 246 238 240 224 218 219 209 203 198 196 195 205 201 190 195 200 185 188 170 206 190 179 153 161 185 209 213
36 29 32 28 22 17 16 15 16 17 348 273 252 251 256 255 251 234 235 231 224 220 212 206 209 206 204 197 200 198 197 196 205 201 191 184 178 186 165 141 167 193 190
28 26 19 15 13 14 16 20 15 10 7 345 304 281 268 265 260 248 238 226 218 219 216 215 211 208 204 203 198 201 197 199 200 204 202 201 205 175 187 168 143 161 159
29 23 19 17 14 13 13 9 13 18 10 358 345 315 296 278 268 259 247 238 225 215 213 213 217 218 212 207 204 204 206 196 199 204 209 199 200 188 185 167 154 158 169
21 20 17 15 12 9 6 5 4 6 9 6 357 345 323 299 281 269 254 249 230 215 211 211 212 212 210 207 202 207 208 201 192 197 202 207 196 195 199 180 175 152 176
17 11 2 3 2 3 2 2 5 4 1 0 359 352 340 320 299 287 264 248 241 232 214 206 210 216 212 206 204 204 201 202 199 194 187 199 187 189 192 188 187 184 158
22 14 5 359 354 356 359 360 2 358 358 356 356 353 349 343 322 296 280 266 252 236 225 217 211 211 212 208 203 206 199 200 199 194 190 192 181 185 183 177 176 182 174
7 357 353 354 355 352 354 352 352 353 351 349 347 350 348 350 351 330 304 286 267 248 234 225 220 214 212 208 211 208 202 200 199 192 191 193 180 193 180 172 176 179 184
3 356 352 353 351 346 346 345 346 345 346 341 338 343 349 351 349 345 328 301 277 268 244 234 225 220 213 209 210 210 207 205 203 193 192 189 185 189 183 177 171 177 173
343 351 353 345 346 339 338 336 336 341 339 338 337 340 348 344 340 338 338 331 304 278 262 243 230 226 217 217 213 211 209 206 206 200 198 194 191 190 182 181 180 170 173
336 342 340 339 334 328 325 327 326 332 334 329 332 332 339 339 333 338 332 338 330 302 274 257 244 229 226 221 212 214 215 203 203 203 198 197 195 194 188 178 180 175 172
326 333 328 325 323 318 316 319 316 320 325 326 326 327 334 334 330 331 331 332 335 323 297 271 254 240 228 225 219 212 212 208 203 203 201 196 190 194 191 192 188 182 175
303 324 324 322 316 307 302 301 303 306 307 306 305 317 328 327 329 331 328 324 320 325 302 283 268 254 243 232 222 214 213 210 207 205 200 197 195 190 188 195 192 193 193
287 307 315 313 315 307 300 299 292 293 293 292 295 304 313 314 320 319 316 316 315 313 298 282 271 269 265 252 235 220 217 215 215 209 201 198 189 190 183 181 186 190 193
277 289 299 301 303 298 298 296 289 291 287 286 289 297 308 303 311 310 310 307 307 301 291 285 279 269 260 258 248 225 214 219 216 212 203 200 194 190 184 181 181 181 187
269 290 299 300 296 294 299 293 290 290 285 288 288 294 301 297 301 301 300 305 300 295 295 284 267 264 264 250 242 232 224 221 214 201 204 204 195 193 189 187 181 182 180
291 295 299 297 293 296 293 290 290 285 291 286 278 283 289 297 296 297 296 296 297 295 290 287 279 262 255 254 246 236 224 218 212 213 205 203 206 201 194 189 188 186 165
304 305 302 296 296 298 300 291 284 291 293 285 274 281 283 290 295 294 294 289 288 286 283 286 283 268 248 240 244 240 235 225 205 205 197 194 199 197 199 188 188 179 170
304 305 302 300 298 301 299 294 294 301 296 291 285 284 288 291 291 289 288 288 280 275 274 274 278 276 253 236 238 241 244 236 206 195 191 191 194 191 195 191 183 178 167
310 311 307 300 298 304 305 301 306 313 318 299 292 293 291 292 289 282 276 274 273 270 269 269 269 276 272 249 237 231 242 248 199 185 186 191 191 189 183 186 184 176 168
313 310 304 300 300 306 305 308 308 308 299 296 294 292 289 285 283 274 273 270 269 269 269 267 266 266 265 259 249 239 230 232 184 155 153 178 180 181 177 176 174 158 152
310 303 302 301 300 300 299 299 295 293 293 292 291 288 289 285 281 281 281 271 273 274 271 269 264 261 255 260 259 250 244 235 167 160 167 177 183 176 170 159 148 147 149